www.pogodaiklimat.ru

Погода и климат >> Архив погоды >> Кувейт >> Bubiyan


ПОГОДА в Bubiyan

  • Прогноз погоды в Bubiyan
  • Монитор погоды в Bubiyan
  • Климат города

АРХИВ ПОГОДЫ в Bubiyan

Время (UTC), дата Ветер
(напр.,м/с)
 
Видим.   Явления Облачность Т
(С)
Тd
(С)
f
(%)
Тe
(С)
Тes
(С)
Комфортность P
(гПа)
Po
(гПа)
Тmin
(С)
Tmax
(С)
R
(мм)
R24
(мм)
S
(см)
21 10.10 ЮЗ 6-7
{7}
н/о н/о +25.7 +19.4 68 +31 +31 очень
душно
1008.5 1009.0 +21.0 +33.4
00 11.10 З 8-11
{11}
н/о н/о +24.9 +8.9 36 +25 +25 комфорт 1008.5 1009.0
03 11.10 З 5-6
{9}
н/о н/о +21.5 +9.7 47 +23 +23 комфорт 1009.9 1010.0
06 11.10 СЗ 8-11
{12}
н/о н/о +30.8 +10.8 29 +31 +31 жарко 1011.9 1012.0
09 11.10 СЗ 7-13
{13}
н/о н/о +36.3 +9.5 20 +35 +35 очень
жарко
1010.9 1011.0
12 11.10 СЗ 9-12
{15}
н/о н/о +36.5 +8.7 18 +35 +35 очень
жарко
1010.1 1010.0
15 11.10 0 н/о н/о +12.0 1010.8 1010.8
18 11.10 СЗ 5-6 н/о н/о +26.7 +15.3 50 +30 +30 душно 1011.9 1012.0
21 11.10 СЗ 5-6
{7}
н/о н/о +24.1 +14.4 55 +27 +27 жарко 1012.4 1012.0 +20.6 +37.7
00 12.10 СЗ 6-8
{10}
н/о н/о +24.7 +14.2 52 +27 +27 жарко 1012.6 1013.0
03 12.10 С 7-10
{12}
н/о н/о +24.1 +12.5 48 +26 +26 жарко 1013.4 1013.0
06 12.10 С 7-9
{12}
н/о н/о +27.8 +11.9 37 +29 +29 жарко 1014.8 1015.0
09 12.10 С 8-11
{12}
н/о н/о +33.7 +4.7 16 +31 +31 жарко 1013.5 1014.0
12 12.10 СЗ 8-11
{12}
н/о н/о +34.9 +3.8 14 +32 +32 жарко 1012.3 1012.0
15 12.10 СЗ 4-5
{10}
н/о н/о +28.9 +5.3 22 +31 +31 жарко 1012.6 1013.0
18 12.10 СЗ 6-6
{10}
н/о н/о +23.2 +7.5 36 +24 +24 комфорт 1013.0 1013.0
21 12.10 СЗ 4-5
{7}
н/о н/о +21.7 +8.4 42 +23 +23 комфорт 1012.6 1013.0 +21.5 +35.4
00 13.10 СЗ 5-5
{7}
н/о н/о +18.5 +8.0 50 +19 +19 1011.9 1012.0
03 13.10 СЗ 6-6
{8}
н/о н/о +18.7 +9.2 54 +19 +19 1012.5 1013.0
06 13.10 С 8-9
{10}
н/о н/о +28.3 +10.2 32 +29 +29 жарко 1013.7 1014.0
09 13.10 С 6-8
{11}
н/о н/о +34.7 +4.2 15 +32 +32 жарко 1011.9 1012.0
12 13.10 СЗ 7-8
{11}
н/о н/о +37.0 +2.7 12 +34 +34 очень
жарко
1010.1 1010.0
15 13.10 С 3-3
{8}
н/о н/о +29.8 +2.2 17 +33 +33 душно 1010.0 1010.0
18 13.10 СЗ 5-5
{8}
н/о н/о +26.7 +4.3 24 +26 +26 жарко 1010.8 1011.0
21 13.10 З 5-6
{7}
н/о н/о +23.9 +10.3 42 +25 +25 комфорт 1010.2 1010.0 +18.2 +37.6
00 14.10 СЗ 5-5
{7}
н/о н/о +20.0 +6.9 43 +21 +21 комфорт 1010.1 1010.0
03 14.10 С 3-4
{5}
н/о н/о +22.1 +12.2 53 +24 +24 комфорт 1010.9 1011.0
06 14.10 С 2-3
{5}
н/о н/о +29.2 +12.3 35 +30 +30 жарко 1012.4 1012.0
09 14.10 ЮВ 3-4
{4}
н/о н/о +32.1 +15.1 36 +34 +34 душно 1010.6 1011.0
12 14.10 Ю 3-5
{6}
н/о н/о +35.3 +17.6 35 +34 +34 очень
жарко
1009.1 1009.0
15 14.10 Ю 3-4
{4}
н/о н/о +28.9 +19.2 56 +34 +34 очень
душно
1009.1 1009.0
18 14.10 ЮЗ 4-4
{5}
н/о н/о +24.0 +19.1 74 +29 +29 душно 1010.0 1010.0
21 14.10 С 2-2
{4}
н/о н/о +26.1 +18.3 62 +31 +31 очень
душно
1009.6 1010.0 +19.6 +35.7
00 15.10 СЗ 3-3
{4}
н/о н/о +20.8 +14.4 67 +24 +24 комфорт 1009.4 1009.0
03 15.10 С 2-3
{3}
н/о н/о +24.2 +16.0 60 +27 +27 жарко 1010.8 1011.0
06 15.10 С 2-3
{3}
н/о н/о +30.2 +17.2 46 +34 +34 очень
душно
1012.2 1012.0
09 15.10 В 2-3
{3}
н/о н/о +31.7 +14.3 35 +33 +33 жарко 1011.1 1011.0
12 15.10 ЮВ 4-5
{6}
н/о н/о +31.5 +20.3 51 +38 +38 очень
душно
1010.0 1010.0
15 15.10 Ю 2-3
{6}
н/о н/о +28.6 +24.1 77 +32 +32 душно 1010.1 1010.0
18 15.10 ЮВ 3-3
{6}
н/о н/о +28.2 +24.3 79 +39 +39 очень
душно
1010.6 1011.0
21 15.10 ЮЗ 1-1
{4}
н/о н/о +22.8 +19.7 83 +29 +29 очень
душно
1010.3 1010.0 +19.5 +33.0
00 16.10 СЗ 5-6
{6}
н/о н/о +21.6 +15.7 69 +25 +25 комфорт 1010.3 1010.0
03 16.10 СЗ 5-5
{6}
н/о н/о +20.4 +12.6 61 +22 +22 комфорт 1011.5 1012.0
06 16.10 С 3-4
{6}
н/о н/о +28.9 +17.6 50 +33 +33 очень
душно
1012.7 1013.0
09 16.10 СВ 3-4
{4}
н/о н/о +31.6 +17.4 43 +36 +36 очень
душно
1011.6 1012.0
12 16.10 ЮВ 3-4
{4}
н/о н/о +31.1 +21.4 56 +39 +39 очень
душно
1009.8 1010.0
15 16.10 ЮВ 3-4
{4}
н/о н/о +28.4 +23.1 73 +38 +38 очень
душно
1009.4 1009.0
18 16.10 СЗ 2-3
{4}
н/о н/о +24.8 +22.1 85 +32 +32 очень
душно
1010.2 1010.0
21 16.10 С 5-5
{5}
н/о н/о +23.9 +19.0 74 +29 +29 душно 1010.1 1010.0 +19.5 +33.0
00 17.10 С 4-5
{6}
н/о н/о +20.9 +15.2 70 +24 +24 комфорт 1010.0 1010.0
03 17.10 С 6-8
{9}
н/о н/о +26.5 +12.5 42 +28 +28 жарко 1010.9 1011.0
06 17.10 С 7-8
{9}
н/о н/о +29.6 +14.7 40 +32 +32 душно 1012.3 1012.0
09 17.10 С 7-8
{9}
н/о н/о +32.1 +15.7 37 +35 +35 очень
душно
1011.5 1012.0
12 17.10 С 5-7
{9}
н/о н/о +32.8 +17.7 41 +37 +37 очень
душно
1009.6 1010.0
15 17.10 С 4-5
{7}
н/о н/о +29.3 +14.4 40 +31 +31 жарко 1010.1 1010.0

 

Местоположение метеостанции Bubiyan (Кувейт): широта 29.77 долгота 48.38 высота над уровнем моря 6 м.

В архиве по умолчанию представлена погода в Bubiyan за последнюю неделю. Архивные данные за месяц целиком и за предыдущие месяцы, начиная с января 2011 года, Вы можете получить, выбрав интересующий диапазон дат из раскрывающегося списка и нажав кнопку "Ввод!".

Внимание! Время в таблицах - всемирное. Для получения местного времени необходимо прибавить поправку, которая в Bubiyan равна 3 ч.

Смотрите также архив погоды в соседних городах и на ближайших метеорологических станциях:

Погода в Fao (Ирак) (26 км)
Погода в Failaka Island (Кувейт) (35 км)
Погода в Warba (Кувейт) (37 км)
Погода в Sabriyah (Кувейт) (51 км)
Погода в Al-Shuaiba (Кувейт) (54 км)
Погода в Shuwaikh (Кувейт) (58 км)
Погода в Abadan (Иран) (68 км)
Погода в Experimental Farm (Кувейт) (68 км)
Погода в Kuwait (Кувейт) (73 км)
Погода в Abdaly (Кувейт) (74 км)

Пояснения к столбцам:

Ветер - указаны скорость ветра в м/с - средняя за 10 мин, порывы в срок и между сроками (в фигурных скобках) и направление, откуда дует ветер: С - северный, СВ - северо-восточный, В - восточный, ЮВ - юго-восточный, Ю - южный, ЮЗ - юго-западный, З - западный, СЗ - северо-западный.
Видимость - горизонтальная дальность видимости в метрах или километрах. При видимости от 1 до 10 км при отсутствии осадков обычно наблюдается дымка, при ухудшении видимости до 1 км и менее - туман. В сухую погоду видимость может ухудшаться дымом, пылью или мглою.
Явления - указаны атмосферные явления, наблюдавшиеся в срок или в последний час перед сроком; фигурными скобками обозначены явления, наблюдавшиеся между сроками (за 1-3 часа до срока); квадратными скобками обозначены град или гололедные отложения с указанием их диаметра в мм.
Облачность - указаны через наклонную черту общая и нижняя облачность в баллах и высота нижней границы облаков в метрах; квадратными скобками обозначены формы облаков: Ci - перистые, Cs - перисто-слоистые, Cc - перисто-кучевые, Ac - высококучевые, As - высокослоистые, Sc - слоисто-кучевые, Ns - слоисто-дождевые, Cu - кучевые, Cb - кучево-дождевые. Подробнее классификацию облаков см. в Атласе облаков (PDF).
T - Температура воздуха - температура, измеренная на высоте 2 м над землей.
Td - Температура точки росы - температура, при понижении до которой содержащийся в воздухе водяной пар достигнет насыщения.
f - Относительная влажность воздуха - влажноcть воздуха, измеренная на высоте 2 м над землей.
Te - Эффективная температура - температура, которую ощущает одетый по сезону человек в тени. Характеристика душности погоды. При расчете учитывается влияние влажности воздуха и скорости ветра на теплоощущения человека.
Tes - Эффективная температура на солнце - температура, которую ощущает человек, с поправкой на солнечный нагрев. Характеристика знойности погоды. Зависит от высоты солнца над горизонтом, облачности и скорости ветра. Ночью, в пасмурную погоду, а также при ветре 12 м/с и более поправка равна нулю.
P - Атмосферное давление - приведенное к уровню моря атмосферное давление.
Po - Атмосферное давление - измеренное на уровне метеостанции атмосферное давление.
Tmin - Минимальная температура - минимум температуры воздуха на высоте 2 м над землей.
Tmax - Максимальная температура - максимум температуры воздуха на высоте 2 м над землей.
R - Количество осадков - Количество выпавших осадков за период времени, мм. При наведении курсора мыши на число - период времени, за который выпало указанное количество осадков.
R24 - Количество осадков - Количество выпавших осадков за 24 часа, мм.
S - Снежный покров - Высота снежного покрова, см. При наведении курсора мыши на число - состояние снежного покрова и степень покрытия местности в баллах.